[[{"header":{"parameterUnit":"m.s-1","parameterCategory":2,"la1":30.2991,"la2":30.254,"lo1":-89.0895,"lo2":-89.0444,"dy":0.0017,"dx":0.0017,"nx":28,"ny":28,"refTime":"2024-02-22T03:00:00:Z","depth":"0","parameterNumber":2,"parameterNumberName":"U-component_of_CURRENTS"},"data":[0,0,0,0,0,0,0,0,0,0,0,0,0,0,0,0,0,0,0,0,0,0,0,0,0,0,0,0,0,0,0,0,0,0,0,0,0,0,0,0,0,0,0,0,0,0,0,0,0,0,0,0,0,0,0,0,0,0,0.2878,0.2879,0,0.294,0.294,0.2941,0.2937,0.2936,0.2935,0.2935,0.2954,0.2955,0.2957,0,0,0,0,0,0,0,0,0,0,0,0,0,0.2793,0.2795,0.2878,0.2879,0.288,0.294,0.294,0.2941,0.2937,0.2936,0.2935,0.2934,0.2954,0.2955,0.2957,0,0,0,0,0,0,0,0,0,0,0,0,0,0.2839,0.2795,0.2878,0.2886,0.2887,0.294,0.294,0.2941,0.2937,0.2936,0.2935,0.2934,0.2953,0.2955,0.2957,0.2992,0,0,0.2963,0.2964,0,0,0,0,0,0,0,0,0.2836,0.2842,0.2884,0.2885,0.2887,0.2931,0.2918,0.2957,0.2938,0.2917,0.2935,0.2933,0.2944,0.2947,0.296,0.2993,0.2994,0.2963,0.2964,0.2965,0.2965,0,0,0,0,0,0,0,0.2833,0.2839,0.2901,0.2885,0.2887,0.2899,0.2904,0.2926,0.2934,0.2919,0.2919,0.2928,0.2944,0.2958,0.296,0.2994,0.2963,0.2965,0.2966,0.2966,0.3064,0.3065,0,0,0,0,0,0,0.2828,0.2836,0.2899,0.2903,0.286,0.2902,0.2907,0.2917,0.2935,0.2938,0.2929,0.2928,0.2955,0.2958,0.2961,0.302,0.2965,0.2967,0.2968,0.3063,0.3064,0.3066,0,0,0,0,0,0,0.2826,0.2833,0.2896,0.2872,0.2881,0.2904,0.2916,0.2919,0.2934,0.2944,0.2945,0.2942,0.2954,0.2958,0.2989,0.3019,0.2967,0.2969,0.3061,0.3063,0.3065,0.3127,0,0,0,0,0,0,0.2823,0.2832,0.284,0.2872,0.2882,0.2936,0.2917,0.2921,0.2942,0.2941,0.2955,0.2956,0.2954,0.2986,0.2991,0.3021,0.2971,0.3059,0.3062,0.3064,0.3123,0.3131,0.3138,0,0,0,0,0,0.282,0.2833,0.284,0.2847,0.2891,0.2937,0.2944,0.2955,0.2944,0.2962,0.297,0.2955,0.3006,0.2989,0.2994,0.3026,0.3058,0.3061,0.3064,0.312,0.313,0.3138,0,0,0,0,0,0,0.2794,0.2835,0.2842,0.2866,0.2903,0.2937,0.2955,0.2962,0.2984,0.298,0.2978,0.2981,0.3021,0.3016,0.2997,0.3061,0.3029,0.3033,0.3069,0.3078,0.3086,0.3082,0.2972,0,0,0,0,0,0.2796,0.282,0.286,0.2881,0.29,0.293,0.2949,0.2961,0.2984,0.2992,0.3002,0.3015,0.3041,0.3051,0.3071,0.3109,0.317,0.3131,0.3138,0.3144,0.3145,0.3313,0.3337,0.3077,0.3077,0.3077,0,0,0.279,0.2818,0.283,0.2879,0.2906,0.2943,0.2938,0.2975,0.3,0.2992,0.3025,0.3045,0.3058,0.3101,0.3117,0.3098,0.3248,0.3148,0.3154,0.3151,0.3319,0.3345,0.3368,0.3079,0.3079,0.3078,0,0,0.2799,0.2821,0.2847,0.2882,0.2931,0.2956,0.2969,0.3011,0.3023,0.3069,0.3067,0.3105,0.314,0.3158,0.3171,0.3232,0.3286,0.3237,0.327,0.3434,0.3458,0.3479,0.3584,0.3614,0.3237,0.3237,0.3237,0,0.2792,0.2829,0.2862,0.29,0.293,0.2962,0.3,0.3024,0.3069,0.3102,0.3085,0.318,0.317,0.3244,0.3245,0.3249,0.3342,0.3236,0.3448,0.3471,0.3492,0.3594,0.3627,0.324,0.324,0.324,0.3239,0,0.2824,0.2855,0.2876,0.2933,0.2973,0.3012,0.3055,0.3097,0.3121,0.3156,0.324,0.3254,0.3323,0.3314,0.3286,0.342,0.3437,0.3447,0.3431,0.3523,0.3623,0.3656,0.3245,0.3244,0.3243,0.3242,0,0,0.2798,0.2881,0.2885,0.2928,0.2994,0.3037,0.3091,0.3167,0.3236,0.3273,0.3374,0.3386,0.3424,0.3439,0.3437,0.3528,0.3721,0.3541,0.3548,0.3652,0.4078,0.3997,0.4025,0.3802,0.3808,0.3813,0.4087,0,0.2812,0.2884,0.292,0.2994,0.3042,0.3098,0.3157,0.3231,0.3301,0.3407,0.3444,0.3535,0.3467,0.3522,0.3609,0.3706,0.3814,0.3644,0.3965,0.3973,0.39,0.4063,0.3923,0.4149,0.4119,0.4125,0.4129,0,0.2825,0.288,0.295,0.3055,0.3082,0.3131,0.3269,0.3328,0.3468,0.353,0.3639,0.3693,0.3807,0.3751,0.3993,0.3907,0.3994,0.4052,0.4066,0.399,0.3955,0.4054,0.4211,0.4063,0.418,0.4176,0.4172,0,0.281,0.2899,0.296,0.2993,0.3114,0.3168,0.3237,0.3372,0.3453,0.3631,0.3732,0.3887,0.3987,0.4143,0.422,0.4166,0.4492,0.4452,0.4459,0.4453,0.439,0.4367,0.4446,0.4658,0.4657,0.4657,0.4656,0,0.2817,0.2867,0.2963,0.3004,0.3105,0.3182,0.3311,0.3408,0.3564,0.3671,0.3802,0.392,0.4101,0.4276,0.4343,0.4507,0.4623,0.4503,0.4546,0.4401,0.4377,0.4285,0.4223,0.4667,0.4665,0.4663,0.4661,0,0.2806,0.2855,0.2946,0.3066,0.3105,0.3186,0.3336,0.3425,0.3582,0.3739,0.3804,0.4022,0.4238,0.4392,0.4646,0.4662,0.4696,0.4838,0.4611,0.462,0.4439,0.4386,0.4384,0.4256,0.4926,0.4926,0.4926,0,0.2813,0.2854,0.2985,0.3027,0.3083,0.3198,0.3264,0.342,0.3503,0.3768,0.3829,0.4097,0.4232,0.4578,0.4698,0.4885,0.4702,0.4827,0.4671,0.4443,0.442,0.4216,0.4092,0.4622,0.462,0.4618,0.4616,0,0.284,0.2882,0.2954,0.3025,0.3091,0.3178,0.3277,0.3348,0.3516,0.3649,0.3819,0.3963,0.4292,0.443,0.4673,0.4746,0.4582,0.4786,0.4662,0.4282,0.3965,0.3855,0.4381,0.4598,0.46,0.4601,0.4602,0.4603,0.2872,0.2887,0.2949,0.3018,0.3072,0.3112,0.314,0.3233,0.3342,0.3493,0.3702,0.3874,0.4163,0.4486,0.4518,0.4493,0.4463,0.439,0.4379,0.4217,0.3972,0.4408,0.4588,0.459,0.4591,0.4593,0.4594,0,0.2867,0.2863,0.2924,0.2969,0.2981,0.304,0.3096,0.3082,0.3122,0.3336,0.3476,0.378,0.3939,0.4117,0.4253,0.4138,0.3933,0.4011,0.371,0.3636,0.4158,0.4016,0.3944,0.3944,0.3944,0.3944,0.3944,0.3944,0.287,0.2867,0.2866,0.286,0.2878,0.2814,0.2813,0.2807,0.2898,0.3034,0.3202,0.3438,0.3744,0.3954,0.3887,0.3802,0.3503,0.3369,0.3325,0.3702,0.3734,0.3765,0.3614,0.3459,0.3459,0.2638,0.2632,0.2628]},{"header":{"parameterUnit":"m.s-1","parameterCategory":2,"la1":30.2991,"la2":30.254,"lo1":-89.0895,"lo2":-89.0444,"dy":0.0017,"dx":0.0017,"nx":28,"ny":28,"refTime":"2024-02-22T03:00:00:Z","depth":"0","parameterNumber":3,"parameterNumberName":"V-component_of_CURRENTS"},"data":[0,0,0,0,0,0,0,0,0,0,0,0,0,0,0,0,0,0,0,0,0,0,0,0,0,0,0,0,0,0,0,0,0,0,0,0,0,0,0,0,0,0,0,0,0,0,0,0,0,0,0,0,0,0,0,0,0,0,-0.0097,-0.0098,0,-0.0166,-0.0167,-0.0168,-0.022,-0.022,-0.022,-0.022,-0.0346,-0.0349,-0.0352,0,0,0,0,0,0,0,0,0,0,0,0,0,-0.0065,-0.0065,-0.0097,-0.0098,-0.0098,-0.0166,-0.0167,-0.0168,-0.0219,-0.022,-0.022,-0.0221,-0.0345,-0.0349,-0.0352,0,0,0,0,0,0,0,0,0,0,0,0,0,-0.0102,-0.0065,-0.0097,-0.0131,-0.0135,-0.0166,-0.0167,-0.0168,-0.0219,-0.022,-0.022,-0.0221,-0.0344,-0.0348,-0.0353,-0.0372,0,0,-0.0367,-0.0369,0,0,0,0,0,0,0,0,-0.01,-0.0104,-0.0125,-0.0129,-0.0133,-0.0183,-0.0202,-0.0239,-0.0219,-0.0189,-0.022,-0.0221,-0.0296,-0.0304,-0.0317,-0.0377,-0.0383,-0.0367,-0.037,-0.0372,-0.0373,0,0,0,0,0,0,0,-0.0098,-0.0101,-0.0126,-0.0126,-0.0131,-0.0162,-0.0167,-0.0209,-0.0241,-0.0192,-0.0195,-0.02,-0.0298,-0.0313,-0.0321,-0.0385,-0.0367,-0.0371,-0.0374,-0.0376,-0.0477,-0.0477,0,0,0,0,0,0,-0.0082,-0.0099,-0.0124,-0.0128,-0.0116,-0.0162,-0.0168,-0.0168,-0.0239,-0.025,-0.02,-0.0202,-0.0305,-0.0316,-0.0326,-0.0356,-0.0372,-0.0376,-0.0379,-0.0477,-0.0477,-0.0477,0,0,0,0,0,0,-0.0081,-0.0084,-0.0121,-0.0114,-0.0121,-0.0161,-0.0161,-0.0169,-0.0182,-0.0245,-0.0257,-0.0204,-0.0306,-0.0319,-0.0357,-0.0361,-0.0378,-0.0382,-0.0477,-0.0477,-0.0477,-0.0414,0,0,0,0,0,0,-0.008,-0.0083,-0.0078,-0.0113,-0.012,-0.0132,-0.0161,-0.017,-0.0183,-0.0188,-0.0252,-0.0264,-0.0307,-0.0349,-0.0361,-0.0368,-0.0386,-0.0478,-0.0477,-0.0477,-0.0416,-0.0412,-0.0408,0,0,0,0,0,-0.0079,-0.0065,-0.0077,-0.008,-0.0112,-0.0131,-0.0138,-0.017,-0.0183,-0.0184,-0.0227,-0.0262,-0.0358,-0.0353,-0.0367,-0.0375,-0.0478,-0.0477,-0.0477,-0.0418,-0.0413,-0.0408,0,0,0,0,0,0,-0.0047,-0.007,-0.0084,-0.0078,-0.01,-0.0139,-0.0141,-0.0163,-0.0197,-0.0201,-0.026,-0.0275,-0.0312,-0.0348,-0.0342,-0.0404,-0.0424,-0.0427,-0.0375,-0.037,-0.0366,-0.0303,-0.039,0,0,0,0,0,-0.0037,-0.0035,-0.0064,-0.0059,-0.0066,-0.0102,-0.0113,-0.0134,-0.0168,-0.0183,-0.0228,-0.0277,-0.0323,-0.0348,-0.0392,-0.0423,-0.0391,-0.0438,-0.0434,-0.043,-0.0388,-0.0342,-0.0328,-0.0477,-0.0477,-0.0477,0,0,-0.0024,-0.0036,-0.0035,-0.0053,-0.0072,-0.0076,-0.011,-0.012,-0.0126,-0.0192,-0.0214,-0.0264,-0.0327,-0.0363,-0.0383,-0.0394,-0.0372,-0.043,-0.0426,-0.0386,-0.034,-0.0325,-0.0311,-0.0477,-0.0477,-0.0477,0,0,0.0007,-0.0005,0.0007,-0.0007,-0.0028,-0.0051,-0.0049,-0.0084,-0.0102,-0.0128,-0.018,-0.0219,-0.029,-0.0331,-0.0363,-0.0361,-0.0351,-0.0388,-0.0319,-0.0275,-0.0261,-0.0248,-0.0183,-0.0165,-0.0387,-0.0387,-0.0387,0,0.0024,0.0033,0.0007,0.0014,0.0011,-0.0034,-0.0022,-0.0048,-0.0092,-0.0085,-0.0125,-0.0187,-0.027,-0.0284,-0.0304,-0.035,-0.0304,-0.0334,-0.0265,-0.0252,-0.024,-0.0176,-0.0156,-0.0384,-0.0384,-0.0385,-0.0385,0,0.006,0.0066,0.0074,0.0067,0.006,0.0063,0.003,0.0023,-0.0004,-0.002,-0.0029,-0.0116,-0.0132,-0.0197,-0.0262,-0.0228,-0.0214,-0.0261,-0.0266,-0.022,-0.0157,-0.0138,-0.038,-0.0381,-0.0382,-0.0382,0,0,0.0106,0.0101,0.0104,0.013,0.0091,0.0109,0.0093,0.0096,0.0156,0.0078,0.016,0.0013,0.0011,-0.0024,-0.01,-0.0102,-0.0026,-0.0142,-0.0141,-0.0055,0.0116,0.0058,0.0073,-0.0046,-0.0043,-0.004,0.0129,0,0.0143,0.0185,0.0157,0.0205,0.0231,0.0193,0.0216,0.0214,0.0214,0.0283,0.0199,0.024,0.0066,0.0096,0.0057,0.0028,0.0028,-0.0065,0.0041,0.0045,0.0005,0.0094,0.0028,0.0168,0.0148,0.0151,0.0153,0,0.0186,0.0216,0.027,0.0325,0.0339,0.0369,0.0446,0.0461,0.0508,0.0523,0.0531,0.0506,0.0497,0.0355,0.033,0.0295,0.0213,0.0158,0.0163,0.0111,0.0023,0.0114,0.0203,-0.0054,0.0182,0.018,0.0178,0,0.0268,0.03,0.0361,0.037,0.0419,0.0467,0.0503,0.0552,0.0635,0.0724,0.0831,0.0791,0.0853,0.0741,0.0573,0.0497,0.0571,0.0456,0.0324,0.0321,0.0287,0.0274,0.016,0.0443,0.0442,0.0442,0.0441,0,0.0325,0.0385,0.0427,0.0475,0.0619,0.06,0.0771,0.0804,0.0919,0.1077,0.1,0.1135,0.0957,0.0946,0.0739,0.0623,0.0706,0.0389,0.0373,0.0303,0.029,0.0078,-0.0061,0.0448,0.0447,0.0445,0.0444,0,0.0431,0.0424,0.0543,0.0627,0.0671,0.0798,0.0958,0.109,0.1168,0.1388,0.1444,0.1474,0.1462,0.1251,0.1124,0.0884,0.0601,0.0652,0.0588,0.0558,0.016,0.0028,-0.001,-0.0125,0.0585,0.0584,0.0584,0,0.0499,0.0561,0.0703,0.0797,0.0855,0.1019,0.1142,0.1228,0.137,0.1591,0.1724,0.1786,0.1827,0.1628,0.1225,0.0927,0.0643,0.0654,0.0446,0.0174,0.0017,-0.0072,-0.0173,0.0442,0.044,0.0439,0.0438,0,0.0677,0.0725,0.0836,0.1007,0.1153,0.1313,0.1485,0.1626,0.1751,0.1935,0.215,0.2213,0.2006,0.1699,0.1263,0.0989,0.0461,0.062,0.0366,-0.0066,-0.0187,-0.0319,0.0303,0.0428,0.0429,0.043,0.0431,0.0431,0.086,0.0965,0.1086,0.1248,0.1397,0.156,0.1708,0.1879,0.2111,0.236,0.2417,0.2542,0.2062,0.1457,0.1096,0.0344,0.0374,0.0085,-0.0029,-0.0074,-0.0271,0.0334,0.0398,0.0399,0.04,0.04,0.0401,0,0.1057,0.1132,0.1303,0.1475,0.1624,0.1664,0.1898,0.2037,0.2287,0.2532,0.2696,0.2507,0.1893,0.1257,0.0269,-0.0223,-0.0423,-0.0486,-0.0654,-0.0712,-0.0144,-0.0248,-0.0354,-0.0354,-0.0354,-0.0353,-0.0353,-0.0353,0.1186,0.1341,0.138,0.1622,0.173,0.1922,0.2043,0.2261,0.2453,0.2713,0.2795,0.2824,0.2254,0.0587,-0.0581,-0.085,-0.1178,-0.1228,-0.1359,-0.1046,-0.1003,-0.0963,-0.1096,-0.1378,-0.138,-0.1911,-0.1917,-0.1922]}],[{"header":{"parameterUnit":"m.s-1","parameterCategory":2,"la1":30.2991,"la2":30.254,"lo1":-89.0895,"lo2":-89.0444,"dy":0.0017,"dx":0.0017,"nx":28,"ny":28,"refTime":"2024-02-22T03:00:00:Z","depth":"2","parameterNumber":2,"parameterNumberName":"U-component_of_CURRENTS"},"data":[0,0,0,0,0,0,0,0,0,0,0,0,0,0,0,0,0,0,0,0,0,0,0,0,0,0,0,0,0,0,0,0,0,0,0,0,0,0,0,0,0,0,0,0,0,0,0,0,0,0,0,0,0,0,0,0,0,0,0.2293,0.2293,0,0.2343,0.2344,0.2344,0.236,0.236,0.236,0.236,0.2393,0.2394,0.2394,0,0,0,0,0,0,0,0,0,0,0,0,0,0.2219,0.222,0.2293,0.2294,0.2295,0.2343,0.2344,0.2344,0.236,0.236,0.236,0.2361,0.2393,0.2394,0.2395,0,0,0,0,0,0,0,0,0,0,0,0,0,0.2255,0.2221,0.2292,0.2311,0.2313,0.2343,0.2344,0.2344,0.236,0.236,0.236,0.2361,0.2392,0.2394,0.2395,0.2399,0,0,0.2398,0.2399,0,0,0,0,0,0,0,0,0.2253,0.2258,0.2307,0.231,0.2313,0.2349,0.233,0.2363,0.236,0.2339,0.236,0.2361,0.2379,0.2381,0.2385,0.2401,0.2402,0.2398,0.2399,0.24,0.24,0,0,0,0,0,0,0,0.2251,0.2256,0.2309,0.2308,0.2312,0.2321,0.2325,0.2336,0.2354,0.2341,0.2343,0.2354,0.238,0.2384,0.2386,0.2402,0.2398,0.2399,0.24,0.2401,0.2518,0.252,0,0,0,0,0,0,0.2251,0.2253,0.2308,0.2311,0.2287,0.2322,0.2327,0.2334,0.2355,0.2359,0.2354,0.2355,0.2382,0.2385,0.2388,0.2467,0.24,0.2401,0.2401,0.2516,0.2519,0.2521,0,0,0,0,0,0,0.2249,0.2255,0.2306,0.2286,0.2294,0.2323,0.2331,0.2335,0.2347,0.2366,0.2369,0.2362,0.2382,0.2386,0.2419,0.2466,0.2401,0.2402,0.2513,0.2517,0.252,0.258,0,0,0,0,0,0,0.2247,0.2254,0.2263,0.2286,0.2295,0.2334,0.2331,0.2336,0.2355,0.2356,0.2374,0.2377,0.2383,0.2417,0.242,0.2466,0.2403,0.251,0.2514,0.2519,0.2575,0.2585,0.2594,0,0,0,0,0,0.2244,0.2258,0.2262,0.227,0.2304,0.2335,0.2341,0.2359,0.2355,0.2367,0.2386,0.2376,0.2449,0.2419,0.2422,0.247,0.2507,0.2513,0.2518,0.257,0.2583,0.2594,0,0,0,0,0,0,0.2229,0.2262,0.2267,0.229,0.2315,0.234,0.2358,0.2362,0.2384,0.2394,0.2393,0.2399,0.2448,0.2451,0.2418,0.2521,0.2482,0.2488,0.2521,0.2533,0.2542,0.2559,0.2404,0,0,0,0,0,0.223,0.225,0.2279,0.2297,0.2313,0.2332,0.2348,0.2366,0.2389,0.2398,0.2411,0.2439,0.2472,0.2493,0.2517,0.2563,0.2592,0.2602,0.2612,0.2619,0.2638,0.2751,0.2773,0.2539,0.2539,0.2539,0,0,0.2226,0.2251,0.2259,0.2296,0.2316,0.2351,0.2342,0.2379,0.2417,0.2399,0.2451,0.2464,0.249,0.255,0.2574,0.2558,0.2694,0.2626,0.2633,0.2648,0.2759,0.2782,0.2802,0.2543,0.2542,0.2541,0,0,0.2239,0.2254,0.2279,0.2305,0.2351,0.2372,0.2383,0.2419,0.2447,0.2496,0.2502,0.2544,0.2584,0.2622,0.2643,0.2719,0.2735,0.2732,0.2801,0.291,0.2931,0.2949,0.2981,0.3002,0.2745,0.2745,0.2745,0,0.2237,0.2272,0.2291,0.2327,0.2362,0.2381,0.2426,0.2455,0.2501,0.2541,0.2527,0.2616,0.2627,0.2711,0.2747,0.2741,0.2788,0.275,0.2924,0.2943,0.296,0.299,0.3012,0.2748,0.2748,0.2748,0.2747,0,0.2271,0.2303,0.2323,0.2377,0.2415,0.2458,0.2509,0.2556,0.2588,0.2622,0.2707,0.2726,0.2785,0.2799,0.2797,0.293,0.2913,0.2915,0.2892,0.2988,0.3011,0.3034,0.2754,0.2752,0.2751,0.275,0,0,0.2255,0.2333,0.2339,0.2379,0.2453,0.2488,0.2572,0.2656,0.2709,0.2763,0.286,0.2904,0.2915,0.2941,0.2945,0.3036,0.3179,0.3042,0.3046,0.3068,0.339,0.3269,0.328,0.3231,0.3236,0.324,0.3343,0,0.2279,0.2358,0.2395,0.2471,0.2521,0.2581,0.2648,0.2731,0.2792,0.2888,0.2948,0.3025,0.2969,0.3015,0.3095,0.3176,0.3248,0.3149,0.33,0.3303,0.3181,0.3306,0.3048,0.3111,0.3364,0.3368,0.3371,0,0.2296,0.2358,0.244,0.2539,0.2565,0.2617,0.2744,0.2806,0.2941,0.3005,0.3094,0.3133,0.3263,0.3216,0.3377,0.3326,0.3367,0.3408,0.3414,0.3301,0.3225,0.3066,0.3142,0.3408,0.3405,0.3402,0.3399,0,0.2283,0.2382,0.2453,0.2486,0.2599,0.2665,0.2736,0.2849,0.2925,0.3098,0.3186,0.3299,0.3397,0.3487,0.3521,0.3499,0.3694,0.367,0.3577,0.3566,0.3374,0.3337,0.3799,0.3799,0.3799,0.3799,0.3799,0,0.2294,0.2351,0.2454,0.2494,0.2596,0.2672,0.2777,0.2874,0.3019,0.3121,0.3239,0.3336,0.3488,0.3583,0.3604,0.3642,0.3752,0.3618,0.3614,0.338,0.3345,0.3625,0.3603,0.3803,0.3802,0.3801,0.38,0,0.2276,0.2333,0.2419,0.2544,0.2589,0.2667,0.2815,0.2873,0.3025,0.3183,0.3262,0.3441,0.3576,0.3642,0.3798,0.3737,0.3791,0.3762,0.3433,0.3388,0.3568,0.3548,0.372,0.3717,0.3715,0.3713,0.3711,0,0.2277,0.2317,0.2444,0.2489,0.2553,0.2668,0.2729,0.2882,0.2954,0.3207,0.3284,0.3483,0.3545,0.3683,0.3682,0.3699,0.3762,0.3437,0.335,0.3596,0.3575,0.3559,0.3543,0.3104,0.3097,0.3092,0.3088,0,0.2285,0.2319,0.2388,0.2462,0.2535,0.2627,0.2743,0.2786,0.296,0.3093,0.3226,0.3302,0.346,0.3375,0.3414,0.3382,0.3419,0.3329,0.3739,0.315,0.3021,0.2997,0.3001,0.304,0.3045,0.3049,0.3051,0.3053,0.2282,0.2324,0.2368,0.242,0.2507,0.2549,0.2563,0.265,0.2733,0.285,0.3014,0.3048,0.312,0.3059,0.2981,0.2961,0.3189,0.3047,0.3062,0.3083,0.2981,0.2853,0.2818,0.2821,0.2824,0.2827,0.2829,0,0.2264,0.2291,0.2318,0.2377,0.2394,0.2483,0.2532,0.2469,0.2473,0.2631,0.2692,0.2503,0.248,0.2577,0.2479,0.2476,0.2441,0.2379,0.2318,0.2368,0.2412,0.2273,0.1924,0.1921,0.1918,0.1915,0,0,0.2258,0.2243,0.2215,0.2201,0.2267,0.2241,0.2229,0.2149,0.2184,0.2126,0.2168,0.2353,0.2498,0.2169,0.2144,0.2025,0.2174,0.1949,0.2685,0.2665,0.2704,0.2818,0.2663,0,0,0,0,0]},{"header":{"parameterUnit":"m.s-1","parameterCategory":2,"la1":30.2991,"la2":30.254,"lo1":-89.0895,"lo2":-89.0444,"dy":0.0017,"dx":0.0017,"nx":28,"ny":28,"refTime":"2024-02-22T03:00:00:Z","depth":"2","parameterNumber":3,"parameterNumberName":"V-component_of_CURRENTS"},"data":[0,0,0,0,0,0,0,0,0,0,0,0,0,0,0,0,0,0,0,0,0,0,0,0,0,0,0,0,0,0,0,0,0,0,0,0,0,0,0,0,0,0,0,0,0,0,0,0,0,0,0,0,0,0,0,0,0,0,-0.0098,-0.0099,0,-0.0149,-0.0149,-0.015,-0.0191,-0.0191,-0.0192,-0.0192,-0.0272,-0.0273,-0.0275,0,0,0,0,0,0,0,0,0,0,0,0,0,-0.0081,-0.0081,-0.0098,-0.0099,-0.0099,-0.0149,-0.015,-0.015,-0.0191,-0.0191,-0.0192,-0.0192,-0.0271,-0.0273,-0.0275,0,0,0,0,0,0,0,0,0,0,0,0,0,-0.0106,-0.0081,-0.0098,-0.0125,-0.0127,-0.0149,-0.015,-0.0151,-0.0191,-0.0191,-0.0192,-0.0192,-0.027,-0.0273,-0.0276,-0.0283,0,0,-0.0284,-0.0285,0,0,0,0,0,0,0,0,-0.0105,-0.0107,-0.012,-0.0123,-0.0126,-0.0163,-0.0173,-0.0196,-0.0191,-0.0168,-0.0192,-0.0192,-0.0237,-0.0243,-0.0252,-0.0287,-0.029,-0.0284,-0.0286,-0.0287,-0.0288,0,0,0,0,0,0,0,-0.0103,-0.0105,-0.0119,-0.0121,-0.0124,-0.0149,-0.0153,-0.0178,-0.02,-0.017,-0.0173,-0.0176,-0.0239,-0.0249,-0.0254,-0.0292,-0.0284,-0.0287,-0.0288,-0.029,-0.0348,-0.0348,0,0,0,0,0,0,-0.0092,-0.0103,-0.0118,-0.0121,-0.0115,-0.0149,-0.0153,-0.0152,-0.02,-0.0207,-0.0176,-0.0178,-0.0244,-0.0251,-0.0257,-0.0266,-0.0287,-0.029,-0.0291,-0.0348,-0.0348,-0.0348,0,0,0,0,0,0,-0.0091,-0.0092,-0.0116,-0.0113,-0.0117,-0.0148,-0.0146,-0.0152,-0.0161,-0.0204,-0.0212,-0.0178,-0.0245,-0.0253,-0.0273,-0.0269,-0.0291,-0.0294,-0.0348,-0.0348,-0.0348,-0.0285,0,0,0,0,0,0,-0.009,-0.0092,-0.0088,-0.0112,-0.0117,-0.0119,-0.0146,-0.0153,-0.0162,-0.0165,-0.0208,-0.0216,-0.0246,-0.0269,-0.0276,-0.0273,-0.0296,-0.0348,-0.0348,-0.0348,-0.0287,-0.0282,-0.0278,0,0,0,0,0,-0.0089,-0.0076,-0.0087,-0.0089,-0.011,-0.0118,-0.0123,-0.0148,-0.0161,-0.0159,-0.0189,-0.0215,-0.0273,-0.027,-0.0279,-0.0277,-0.0348,-0.0348,-0.0348,-0.0289,-0.0283,-0.0279,0,0,0,0,0,0,-0.0065,-0.008,-0.0092,-0.0084,-0.0098,-0.0125,-0.0125,-0.0142,-0.0163,-0.0168,-0.021,-0.0219,-0.0236,-0.0265,-0.0261,-0.0295,-0.0317,-0.0318,-0.0269,-0.0264,-0.026,-0.0235,-0.0298,0,0,0,0,0,-0.0057,-0.0054,-0.0072,-0.0067,-0.0071,-0.0097,-0.0104,-0.012,-0.0142,-0.0152,-0.0182,-0.0216,-0.0242,-0.0258,-0.0285,-0.0301,-0.0325,-0.0307,-0.0303,-0.0299,-0.0286,-0.0319,-0.0317,-0.0347,-0.0347,-0.0347,0,0,-0.0047,-0.0055,-0.0053,-0.0062,-0.0076,-0.0068,-0.0103,-0.0107,-0.0102,-0.0157,-0.0162,-0.0199,-0.0242,-0.0259,-0.027,-0.0283,-0.0305,-0.0299,-0.0295,-0.0284,-0.0319,-0.0316,-0.0313,-0.0347,-0.0347,-0.0347,0,0,-0.0017,-0.0029,-0.0015,-0.002,-0.0033,-0.0047,-0.0044,-0.0067,-0.0079,-0.0088,-0.0129,-0.016,-0.0197,-0.0229,-0.025,-0.0239,-0.0278,-0.0253,-0.0215,-0.0248,-0.0245,-0.0243,-0.027,-0.0271,-0.0254,-0.0254,-0.0254,0,-0.0005,0.0014,-0.0012,0.0004,0.0007,-0.0031,-0.0009,-0.0025,-0.0052,-0.0058,-0.0079,-0.014,-0.0181,-0.0204,-0.0204,-0.0228,-0.025,-0.0228,-0.0241,-0.0239,-0.0238,-0.0267,-0.0269,-0.0251,-0.0251,-0.0252,-0.0252,0,0.0036,0.0052,0.0062,0.007,0.0068,0.008,0.0059,0.0053,0.0032,0.0012,-0.0015,-0.0075,-0.0109,-0.0135,-0.0165,-0.0183,-0.0201,-0.0227,-0.0249,-0.0231,-0.0263,-0.0266,-0.0247,-0.0248,-0.0249,-0.0249,0,0,0.0068,0.0088,0.0093,0.0114,0.0107,0.0115,0.0121,0.0119,0.0127,0.0082,0.0089,0.0021,-0.0018,-0.0044,-0.0099,-0.0135,-0.0155,-0.0172,-0.0175,-0.019,-0.0221,-0.0262,-0.0269,-0.0182,-0.0182,-0.0183,-0.0246,0,0.011,0.0162,0.0155,0.0204,0.0231,0.0205,0.0221,0.0208,0.0181,0.0177,0.0107,0.009,0.0018,0.0002,-0.0046,-0.0117,-0.016,-0.0135,-0.0243,-0.0246,-0.0277,-0.0273,-0.0219,-0.0273,-0.0249,-0.0249,-0.025,0,0.0156,0.0187,0.0246,0.0285,0.0295,0.0315,0.0329,0.0336,0.0309,0.0288,0.0243,0.0192,0.0139,0.0075,-0.0045,-0.0023,-0.0114,-0.0181,-0.0186,-0.0245,-0.0292,-0.0289,-0.028,-0.0255,-0.0255,-0.0255,-0.0254,0,0.0203,0.0252,0.0306,0.0318,0.0353,0.0373,0.0386,0.037,0.0384,0.0359,0.0362,0.0282,0.0261,0.0137,-0.0012,-0.002,-0.0145,-0.0177,-0.0305,-0.0309,-0.0294,-0.0297,-0.0268,-0.0268,-0.0268,-0.0268,-0.0268,0,0.0257,0.0301,0.0335,0.0369,0.0433,0.0432,0.0481,0.0476,0.0478,0.0514,0.0424,0.0427,0.0277,0.0182,0.0029,-0.0143,-0.0119,-0.0291,-0.0327,-0.0272,-0.0272,-0.0282,-0.0283,-0.027,-0.027,-0.0269,-0.0269,0,0.0301,0.0325,0.0393,0.0443,0.046,0.0505,0.055,0.0576,0.0573,0.0616,0.062,0.0554,0.0451,0.0267,0.0086,-0.0076,-0.0249,-0.0325,-0.025,-0.0277,-0.0398,-0.0395,-0.0453,-0.0455,-0.0457,-0.0458,-0.0459,0,0.0327,0.0367,0.0445,0.0478,0.0503,0.0561,0.0599,0.0622,0.0658,0.0693,0.0725,0.0654,0.0613,0.0317,0.0055,-0.0211,-0.026,-0.0373,-0.0392,-0.0388,-0.0417,-0.0411,-0.0406,-0.0346,-0.0346,-0.0346,-0.0347,0,0.0362,0.039,0.0441,0.0523,0.0574,0.064,0.0702,0.077,0.0818,0.0873,0.0931,0.0908,0.0649,0.0416,0.0039,-0.0148,-0.0324,-0.0386,-0.0392,-0.0315,-0.0295,-0.032,-0.0317,-0.0347,-0.0347,-0.0347,-0.0347,-0.0347,0.0369,0.04,0.0462,0.0557,0.0618,0.0718,0.0818,0.0897,0.1016,0.1131,0.1091,0.1074,0.0773,0.0332,0.0006,-0.0326,-0.0322,-0.0448,-0.0444,-0.0441,-0.0425,-0.0409,-0.048,-0.0481,-0.0481,-0.0482,-0.0482,0,0.0348,0.0389,0.0478,0.0591,0.0695,0.0724,0.0881,0.0998,0.1183,0.1253,0.1306,0.1044,0.0757,0.0412,-0.0067,-0.0388,-0.0393,-0.0488,-0.0414,-0.0411,-0.0409,-0.0389,-0.0436,-0.0437,-0.0438,-0.0438,0,0,0.0324,0.0388,0.0465,0.0643,0.0732,0.0891,0.1013,0.1178,0.1287,0.1389,0.1387,0.1304,0.088,0.0537,0.0124,-0.0145,-0.0207,-0.0202,-0.0205,-0.0064,-0.0058,-0.0352,-0.0314,0,0,0,0,0]}],[{"header":{"parameterUnit":"m.s-1","parameterCategory":2,"la1":30.2991,"la2":30.254,"lo1":-89.0895,"lo2":-89.0444,"dy":0.0017,"dx":0.0017,"nx":28,"ny":28,"refTime":"2024-02-22T03:00:00:Z","depth":"4","parameterNumber":2,"parameterNumberName":"U-component_of_CURRENTS"},"data":[0,0,0,0,0,0,0,0,0,0,0,0,0,0,0,0,0,0,0,0,0,0,0,0,0,0,0,0,0,0,0,0,0,0,0,0,0,0,0,0,0,0,0,0,0,0,0,0,0,0,0,0,0,0,0,0,0,0,0.145,0.1451,0,0.1507,0.1507,0.1508,0.1558,0.1559,0.1559,0.156,0.1614,0.1615,0.1615,0,0,0,0,0,0,0,0,0,0,0,0,0,0.1362,0.1363,0.145,0.1451,0.1451,0.1506,0.1507,0.1508,0.1558,0.1559,0.156,0.156,0.1614,0.1615,0.1616,0,0,0,0,0,0,0,0,0,0,0,0,0,0.1406,0.1364,0.145,0.1484,0.1488,0.1506,0.1507,0.1508,0.1558,0.1559,0.156,0.1561,0.1613,0.1615,0.1616,0.16,0,0,0.1619,0.1619,0,0,0,0,0,0,0,0,0.1403,0.1409,0.1478,0.1482,0.1486,0.1528,0.1496,0.1539,0.1557,0.1529,0.156,0.1561,0.1585,0.1589,0.1594,0.1602,0.1605,0.1619,0.162,0.162,0.1621,0,0,0,0,0,0,0,0.14,0.1406,0.147,0.1479,0.1484,0.149,0.1497,0.1504,0.1549,0.1532,0.1536,0.1545,0.1587,0.1593,0.1596,0.1606,0.1619,0.162,0.1621,0.1621,0.1678,0.1679,0,0,0,0,0,0,0.1397,0.1404,0.1469,0.1472,0.1449,0.149,0.1499,0.1512,0.1549,0.1556,0.1544,0.1547,0.1591,0.1595,0.1598,0.1671,0.162,0.1621,0.1622,0.1678,0.1679,0.168,0,0,0,0,0,0,0.1395,0.1402,0.1466,0.144,0.1449,0.1491,0.1505,0.1513,0.1551,0.1558,0.1566,0.1579,0.1592,0.1597,0.1633,0.167,0.1622,0.1623,0.1677,0.1678,0.1679,0.1759,0,0,0,0,0,0,0.1392,0.1401,0.1423,0.144,0.1451,0.1495,0.1505,0.1513,0.1553,0.1559,0.159,0.1594,0.1593,0.1631,0.1634,0.1671,0.1624,0.1675,0.1677,0.1679,0.1755,0.1763,0.1769,0,0,0,0,0,0.1389,0.1405,0.1423,0.1432,0.1475,0.1496,0.1502,0.1533,0.1554,0.1572,0.1598,0.1595,0.1643,0.1633,0.1636,0.1674,0.1675,0.1677,0.1679,0.1752,0.1761,0.1769,0,0,0,0,0,0,0.1378,0.1413,0.1433,0.1461,0.1487,0.1506,0.1529,0.155,0.1584,0.1599,0.1607,0.1613,0.1659,0.1649,0.1637,0.1692,0.1658,0.166,0.1713,0.1721,0.1728,0.1711,0.1625,0,0,0,0,0,0.1385,0.141,0.144,0.1465,0.1481,0.1512,0.1531,0.1553,0.1579,0.1597,0.1619,0.1639,0.1662,0.168,0.169,0.172,0.173,0.1744,0.1751,0.1757,0.1744,0.1811,0.1824,0.1686,0.1686,0.1686,0,0,0.1388,0.1411,0.1427,0.1466,0.149,0.1511,0.1527,0.1563,0.1587,0.1595,0.1643,0.1667,0.1674,0.1713,0.1732,0.1716,0.1803,0.176,0.1765,0.1748,0.1815,0.1828,0.184,0.1687,0.1687,0.1687,0,0,0.1391,0.1429,0.1448,0.1471,0.1514,0.153,0.1548,0.1585,0.1615,0.1656,0.1674,0.1716,0.1747,0.1763,0.1773,0.182,0.1838,0.1835,0.1863,0.193,0.1942,0.1953,0.1994,0.2008,0.184,0.184,0.1841,0,0.1398,0.1424,0.1456,0.1476,0.15,0.1542,0.1563,0.1592,0.1639,0.1667,0.168,0.176,0.1764,0.1822,0.1835,0.1837,0.1876,0.1837,0.1942,0.1952,0.1962,0.2001,0.2016,0.1844,0.1844,0.1844,0.1843,0,0.1401,0.1437,0.145,0.1491,0.1518,0.1547,0.1585,0.1627,0.1671,0.1701,0.1781,0.181,0.1864,0.1874,0.1865,0.1943,0.1949,0.1947,0.1926,0.1981,0.2018,0.2032,0.185,0.1849,0.1848,0.1847,0,0,0.1382,0.1443,0.1451,0.1479,0.1533,0.1552,0.16,0.1653,0.171,0.1763,0.1839,0.1876,0.1926,0.1938,0.1964,0.2002,0.21,0.2007,0.2009,0.2056,0.2252,0.2096,0.2095,0.2142,0.2144,0.2146,0.2255,0,0.1383,0.1417,0.1452,0.1496,0.1518,0.1575,0.1622,0.1677,0.1743,0.1825,0.1877,0.1958,0.1945,0.2007,0.2048,0.2088,0.2138,0.2069,0.2181,0.2183,0.2045,0.2106,0.2154,0.2265,0.2268,0.2271,0.2272,0,0.1372,0.1399,0.1439,0.1513,0.1533,0.1575,0.1673,0.1727,0.1835,0.1893,0.1988,0.2044,0.2122,0.2109,0.2218,0.2189,0.2224,0.2241,0.2246,0.2073,0.205,0.2193,0.2296,0.2294,0.2293,0.2291,0.229,0,0.1326,0.1393,0.1428,0.145,0.1535,0.1586,0.1652,0.1756,0.1813,0.1964,0.2029,0.2141,0.222,0.2282,0.2314,0.2298,0.2417,0.2404,0.2296,0.2286,0.2361,0.2348,0.2484,0.2484,0.2484,0.2484,0.2483,0,0.1296,0.1327,0.1423,0.1439,0.1503,0.1586,0.1684,0.1764,0.1892,0.1963,0.2086,0.2156,0.2272,0.2345,0.2364,0.2362,0.2475,0.2298,0.2304,0.2391,0.238,0.2371,0.2356,0.2488,0.2487,0.2486,0.2485,0,0.1229,0.1289,0.1331,0.1438,0.1482,0.1534,0.1676,0.1736,0.1888,0.1993,0.2045,0.2192,0.2295,0.2375,0.2476,0.2411,0.243,0.2406,0.2491,0.2501,0.2245,0.2233,0.2297,0.2293,0.2289,0.2285,0.2283,0,0.1187,0.1209,0.1317,0.1342,0.1397,0.1498,0.1558,0.1712,0.1772,0.1985,0.201,0.2173,0.2256,0.2278,0.2369,0.2415,0.2385,0.2378,0.2292,0.2226,0.2227,0.2222,0.2215,0.2276,0.2275,0.2274,0.2273,0,0.1103,0.1161,0.1192,0.1257,0.1318,0.137,0.148,0.1515,0.1698,0.1847,0.194,0.2012,0.2122,0.219,0.2246,0.2267,0.2367,0.2337,0.2344,0.2264,0.2202,0.2205,0.2204,0.226,0.2262,0.2263,0.2264,0,0.1032,0.1036,0.1096,0.1144,0.12,0.1218,0.1303,0.139,0.1475,0.1724,0.175,0.1938,0.2096,0.2115,0.2159,0.2173,0.214,0.2059,0.208,0.2096,0.1976,0.1864,0.1826,0,0,0,0,0,0.0942,0.0935,0.0978,0.1002,0.1056,0.11,0.1223,0.1317,0.151,0.1528,0.1641,0.1742,0.1839,0.1926,0.1903,0.2055,0.2131,0.2016,0.2043,0.2185,0.22,0.2075,0,0,0,0,0,0,0.087,0.0885,0.0928,0.0878,0.0883,0.0923,0.1,0.1138,0.117,0.1387,0.1452,0.1616,0.1734,0.1833,0.1862,0.1889,0.1866,0.2135,0.213,0.2176,0.219,0.2203,0.2079,0,0,0,0,0]},{"header":{"parameterUnit":"m.s-1","parameterCategory":2,"la1":30.2991,"la2":30.254,"lo1":-89.0895,"lo2":-89.0444,"dy":0.0017,"dx":0.0017,"nx":28,"ny":28,"refTime":"2024-02-22T03:00:00:Z","depth":"4","parameterNumber":3,"parameterNumberName":"V-component_of_CURRENTS"},"data":[0,0,0,0,0,0,0,0,0,0,0,0,0,0,0,0,0,0,0,0,0,0,0,0,0,0,0,0,0,0,0,0,0,0,0,0,0,0,0,0,0,0,0,0,0,0,0,0,0,0,0,0,0,0,0,0,0,0,-0.0024,-0.0024,0,-0.0053,-0.0053,-0.0053,-0.0082,-0.0082,-0.0083,-0.0083,-0.0128,-0.0129,-0.013,0,0,0,0,0,0,0,0,0,0,0,0,0,-0.0016,-0.0015,-0.0024,-0.0024,-0.0024,-0.0053,-0.0053,-0.0053,-0.0082,-0.0082,-0.0083,-0.0083,-0.0128,-0.0129,-0.013,0,0,0,0,0,0,0,0,0,0,0,0,0,-0.003,-0.0015,-0.0024,-0.0042,-0.0043,-0.0052,-0.0053,-0.0054,-0.0082,-0.0082,-0.0083,-0.0083,-0.0128,-0.0129,-0.013,-0.0129,0,0,-0.0135,-0.0135,0,0,0,0,0,0,0,0,-0.0029,-0.003,-0.0039,-0.004,-0.0042,-0.0064,-0.0067,-0.0079,-0.0082,-0.0068,-0.0083,-0.0084,-0.0108,-0.0111,-0.0116,-0.0131,-0.0133,-0.0135,-0.0136,-0.0136,-0.0137,0,0,0,0,0,0,0,-0.0028,-0.0029,-0.0036,-0.0039,-0.0041,-0.0056,-0.0058,-0.0069,-0.0085,-0.0069,-0.0071,-0.0073,-0.0109,-0.0114,-0.0117,-0.0134,-0.0135,-0.0136,-0.0137,-0.0137,-0.0149,-0.0149,0,0,0,0,0,0,-0.0021,-0.0028,-0.0035,-0.0037,-0.0036,-0.0055,-0.0058,-0.0057,-0.0085,-0.0089,-0.0073,-0.0075,-0.0112,-0.0115,-0.0119,-0.0108,-0.0136,-0.0137,-0.0138,-0.015,-0.0149,-0.0149,0,0,0,0,0,0,-0.0021,-0.0021,-0.0034,-0.0033,-0.0035,-0.0055,-0.0053,-0.0057,-0.0064,-0.0088,-0.0093,-0.0075,-0.0112,-0.0117,-0.0125,-0.011,-0.0138,-0.0139,-0.015,-0.015,-0.0149,-0.0093,0,0,0,0,0,0,-0.002,-0.0021,-0.0019,-0.0032,-0.0035,-0.0033,-0.0053,-0.0057,-0.0064,-0.0066,-0.0091,-0.0096,-0.0113,-0.0122,-0.0126,-0.0112,-0.014,-0.0151,-0.015,-0.0149,-0.0095,-0.009,-0.0086,0,0,0,0,0,-0.002,-0.0009,-0.0018,-0.0019,-0.0031,-0.0032,-0.0034,-0.0051,-0.0063,-0.006,-0.0078,-0.0095,-0.0119,-0.0123,-0.0127,-0.0114,-0.0151,-0.015,-0.0149,-0.0097,-0.0091,-0.0086,0,0,0,0,0,0,-0.0003,-0.0012,-0.0022,-0.0014,-0.0021,-0.0036,-0.0035,-0.0048,-0.0059,-0.0062,-0.0089,-0.0094,-0.0097,-0.0113,-0.0117,-0.0115,-0.0138,-0.0138,-0.0097,-0.0091,-0.0087,-0.0078,-0.0141,0,0,0,0,0,0.0002,0.0006,-0.0005,0.0,-0.0002,-0.0019,-0.0023,-0.0032,-0.0044,-0.005,-0.0067,-0.0085,-0.0095,-0.01,-0.0113,-0.011,-0.0152,-0.0105,-0.0101,-0.0096,-0.0092,-0.015,-0.015,-0.0145,-0.0145,-0.0145,0,0,0.0009,0.0005,0.0007,0.0004,-0.0005,0.0007,-0.0022,-0.0021,-0.0009,-0.0052,-0.0044,-0.007,-0.0092,-0.0089,-0.0092,-0.0101,-0.012,-0.0095,-0.0091,-0.0089,-0.0149,-0.0149,-0.015,-0.0144,-0.0144,-0.0144,0,0,0.0034,0.0024,0.0037,0.0038,0.0032,0.0025,0.0027,0.0015,0.0012,0.0016,-0.0014,-0.003,-0.0042,-0.0056,-0.0064,-0.0042,-0.0096,-0.0048,-0.0013,-0.0068,-0.0069,-0.0071,-0.0127,-0.0135,-0.0042,-0.0042,-0.0042,0,0.0042,0.0061,0.0041,0.0059,0.0067,0.0038,0.0061,0.0057,0.0044,0.0042,0.0028,-0.0005,-0.0023,-0.0027,-0.0017,-0.003,-0.0077,-0.0031,-0.0063,-0.0065,-0.0068,-0.0126,-0.0134,-0.0039,-0.0039,-0.004,-0.004,0,0.008,0.0096,0.0105,0.0119,0.0123,0.0138,0.0132,0.0132,0.0121,0.011,0.0098,0.0065,0.0042,0.0036,0.002,-0.0001,-0.0035,-0.0054,-0.0077,-0.0065,-0.0127,-0.0136,-0.0035,-0.0036,-0.0037,-0.0037,0,0,0.0099,0.0127,0.0131,0.0151,0.0159,0.0168,0.0188,0.0194,0.0198,0.0179,0.0175,0.0158,0.0119,0.0107,0.0072,0.0031,-0.0024,-0.0014,-0.0018,-0.007,-0.0159,-0.0132,-0.014,-0.0058,-0.006,-0.0061,-0.0196,0,0.0135,0.0185,0.0189,0.0235,0.026,0.0249,0.0272,0.027,0.0253,0.0237,0.0198,0.0179,0.0153,0.0132,0.0089,-0.0002,-0.0048,0.0014,-0.0164,-0.0169,-0.0145,-0.0149,-0.0065,-0.0204,-0.0207,-0.0208,-0.0209,0,0.0173,0.0203,0.0259,0.0298,0.0307,0.0329,0.0343,0.036,0.0332,0.0316,0.0279,0.0229,0.0174,0.0144,0.0003,0.0037,-0.005,-0.0121,-0.0128,-0.0127,-0.0158,-0.022,-0.0228,-0.0227,-0.0225,-0.0224,-0.0223,0,0.02,0.0251,0.0299,0.0314,0.0352,0.0373,0.0389,0.0381,0.0395,0.0352,0.0339,0.0257,0.0213,0.0094,-0.0033,-0.0032,-0.0201,-0.0221,-0.0278,-0.0278,-0.0289,-0.0286,-0.0322,-0.0322,-0.0321,-0.0321,-0.032,0,0.0238,0.0274,0.0315,0.0343,0.0398,0.0409,0.0447,0.0447,0.0439,0.0454,0.0378,0.0357,0.0196,0.0086,-0.0038,-0.0182,-0.0208,-0.0274,-0.0309,-0.0262,-0.0254,-0.0297,-0.0292,-0.0326,-0.0325,-0.0324,-0.0323,0,0.0255,0.0286,0.0341,0.0392,0.0414,0.0448,0.0497,0.0522,0.0507,0.0516,0.0505,0.0411,0.0274,0.0113,-0.009,-0.0175,-0.0325,-0.0368,-0.0306,-0.0336,-0.037,-0.0361,-0.046,-0.046,-0.046,-0.046,-0.046,0,0.0266,0.0299,0.0373,0.0411,0.0438,0.0492,0.054,0.0558,0.0583,0.0557,0.0566,0.0441,0.0364,0.0103,-0.0073,-0.0316,-0.0336,-0.0422,-0.0391,-0.0359,-0.0384,-0.0375,-0.0366,-0.0461,-0.0461,-0.0461,-0.0461,0,0.0282,0.0308,0.0354,0.0445,0.0506,0.0573,0.0635,0.0657,0.068,0.0659,0.0618,0.0484,0.0332,0.0124,-0.0061,-0.0231,-0.0374,-0.0423,-0.0425,-0.0396,-0.0361,-0.0383,-0.0374,-0.0461,-0.0461,-0.0461,-0.0461,0,0.0291,0.0322,0.0394,0.0472,0.0555,0.0641,0.0666,0.0706,0.073,0.0701,0.0683,0.0519,0.0412,0.0167,-0.0003,-0.0168,-0.021,-0.026,-0.0271,-0.0273,-0.0167,-0.0091,-0.0139,0,0,0,0,0,0.0301,0.0349,0.0421,0.0519,0.0603,0.0662,0.0733,0.0751,0.0765,0.0752,0.072,0.0586,0.0338,0.0222,0.0063,-0.0017,-0.0248,-0.0209,-0.0313,-0.0462,-0.0462,-0.0366,0,0,0,0,0,0,0.0309,0.0379,0.0424,0.0549,0.0622,0.0729,0.078,0.0791,0.0778,0.0756,0.0626,0.0553,0.0308,0.0432,0.0063,0.0011,-0.0075,-0.0331,-0.0335,-0.0463,-0.0462,-0.0462,-0.0363,0,0,0,0,0]}]]